Flag for Germany Weather past 2 weeks in Schwerin, Mecklenburg-Western Pomerania, Germany

40 °F

Light freezing rain. Low clouds.

Feels Like: 37 °F
Forecast: 33 / 39 °F
Wind: 3 mph from Southwest

Location: Marnitz

Current Time: Nov 26, 2015 at 2:35:49 AM

Latest Report: Nov 26, 2015 at 1:00 AM

Visibility: 2 mi

Pressure: 29.69 "Hg

Humidity: 100%

Dew point: 40 °F

Location of SchwerinLocation

Historic Weather in Schwerin — Graph


Schwerin temperature yesterday

Maximum temperature yesterday: 40 °F (at 10:00 PM)
Minimum temperature yesterday: 33 °F (at 5:00 AM)
Average temperature yesterday: 37 °F

Past Weeks' High & Low Weather Summary

High58 °F (Nov 11, 4:00 AM)100% (Nov 15, 8:00 AM)30.25 "Hg (Nov 15, 8:00 AM)
Low29 °F (Nov 23, 2:00 AM)56% (Nov 23, 3:00 PM)29.32 "Hg (Nov 21, 1:00 AM)
Average45 °F88%29.78 "Hg
* Reported Nov 11 1:00 AM — Midnight between Nov 25 and Nov 26, Schwerin, Weather by CustomWeather, © 2015

Note: Actual official high and low records may vary slightly from our data, if they occured in-between our weather recording intervals... More about our weather records


Schwerin weather history for previous 24 hours

Time TempWeatherWind HumidityBarometerVisibility
12:00 AM
Thu, Nov 26
40 °FLight freezing rain. Low clouds.3 mph100%29.68 "Hg2 mi
11:00 PM
Wed, Nov 25
39 °FFog.2 mph100%29.67 "Hg2 mi
10:00 PM40 °FFog.2 mph99%29.67 "Hg3 mi
9:00 PM39 °FLow clouds.2 mph100%29.65 "Hg2 mi
8:00 PM39 °FLow clouds.3 mph100%29.65 "Hg2 mi
7:00 PM39 °FLight rain. Low clouds.2 mph100%29.63 "Hg2 mi
6:00 PM39 °FDrizzle. Low clouds.3 mph100%29.63 "Hg1 mi
5:00 PM39 °FFog.2 mph100%29.62 "Hg2 mi
4:00 PM38 °FFog.2 mph100%29.62 "Hg3 mi
3:00 PM38 °FLow clouds.3 mph99%29.60 "Hg3 mi
2:00 PM38 °FFog.3 mph99%29.61 "Hg4 mi
1:00 PM37 °FLow clouds.5 mph100%29.62 "Hg3 mi
12:00 PM36 °FDrizzle. Low clouds.3 mph100%29.63 "Hg2 mi
11:00 AM35 °FLow clouds.3 mph100%29.64 "Hg3 mi
10:00 AM34 °FLight rain. Low clouds.3 mph99%29.64 "Hg2 mi
9:00 AM34 °FLight snow. Low clouds.3 mph99%29.64 "Hg2 mi
7:00 AM34 °FLight snow. Low clouds.3 mph98%29.65 "Hg3 mi
5:00 AM33 °FLight snow. Low clouds.5 mph99%29.67 "Hg2 mi
4:00 AM34 °FLight snow. Low clouds.5 mph98%29.68 "Hg2 mi
3:00 AM34 °FLight snow. Low clouds.5 mph97%29.70 "Hg3 mi
2:00 AM34 °FDrizzle. Low clouds.5 mph97%29.72 "Hg4 mi
Weather by CustomWeather, © 2015

See weather overviewHow to use our weather pages